TimePDT,TemperatureF,Dew PointF,Humidity,Sea Level PressureIn,VisibilityMPH,Wind Direction,Wind SpeedMPH,Gust SpeedMPH,PrecipitationIn,Events,Conditions,WindDirDegrees,DateUTC
12:00 AM,44.6,42.8,93,30.47,15.0,East,2.3,-,N/A,,Clear,80,2013-10-04 07:00:00
1:00 AM,44.6,42.8,93,30.47,15.0,East,4.6,-,N/A,,Clear,80,2013-10-04 08:00:00
2:00 AM,46.4,42.8,87,30.48,15.0,NE,3.5,-,N/A,,Clear,40,2013-10-04 09:00:00
3:00 AM,44.6,42.8,93,30.49,15.0,East,3.5,-,N/A,,Clear,90,2013-10-04 10:00:00
4:00 AM,44.6,41.0,87,30.47,15.0,East,3.5,-,N/A,,Clear,90,2013-10-04 11:00:00
5:00 AM,43,41,92,30.47,15,East,5.8,,,,,100,2013-10-04 12:00:00
5:00 AM,42.8,41.0,93,30.47,15.0,East,5.8,-,N/A,,Clear,100,2013-10-04 12:00:00
6:00 AM,44.6,42.8,93,30.48,15.0,ESE,3.5,-,N/A,,Mostly Cloudy,110,2013-10-04 13:00:00
7:00 AM,42.8,42.8,100,30.48,15.0,East,5.8,-,N/A,,Partly Cloudy,80,2013-10-04 14:00:00
8:00 AM,44.6,42.8,93,30.48,30.0,ESE,6.9,-,N/A,,Mostly Cloudy,110,2013-10-04 15:00:00
9:00 AM,48.2,44.6,87,30.49,30.0,ESE,8.1,-,N/A,,Mostly Cloudy,110,2013-10-04 16:00:00
10:00 AM,48.2,44.6,87,30.49,30.0,East,5.8,-,N/A,,Mostly Cloudy,100,2013-10-04 17:00:00
11:00 AM,52,46,74,30.49,28,ESE,8.1,,,,Overcast,120,2013-10-04 18:00:00
11:00 AM,51.8,46.4,82,30.48,30.0,ESE,6.9,-,N/A,,Overcast,110,2013-10-04 18:00:00
12:00 PM,55.4,48.2,77,30.49,30.0,ESE,4.6,-,N/A,,Overcast,110,2013-10-04 19:00:00
1:00 PM,55.4,48.2,77,30.46,30.0,SE,5.8,-,N/A,,Overcast,140,2013-10-04 20:00:00
2:00 PM,55.4,48.2,77,30.45,30.0,SW,8.1,-,N/A,,Overcast,220,2013-10-04 21:00:00
3:00 PM,53.6,50.0,88,30.43,30.0,SW,4.6,-,N/A,,Overcast,220,2013-10-04 22:00:00
4:00 PM,53.6,50.0,88,30.42,30.0,WNW,4.6,-,N/A,,Overcast,290,2013-10-04 23:00:00
5:00 PM,53,48,79,30.42,28,WSW,3.5,,,,Overcast,240,2013-10-05 00:00:00
5:00 PM,53.6,48.2,82,30.41,30.0,WSW,3.5,-,N/A,,Overcast,240,2013-10-05 00:00:00
6:00 PM,51.8,48.2,88,30.40,30.0,Calm,Calm,-,N/A,,Overcast,0,2013-10-05 01:00:00
7:00 PM,51.8,48.2,88,30.40,20.0,WNW,3.5,-,N/A,,Overcast,290,2013-10-05 02:00:00
8:00 PM,51.8,50.0,94,30.38,15.0,Calm,Calm,-,N/A,,Overcast,0,2013-10-05 03:00:00
9:00 PM,53.6,48.2,82,30.38,15.0,Calm,Calm,-,N/A,,Overcast,0,2013-10-05 04:00:00
10:00 PM,51.8,50.0,94,30.38,15.0,NW,4.6,-,N/A,,Overcast,320,2013-10-05 05:00:00
11:00 PM,52,50,90,30.38,15,NW,2.3,,,,Overcast,310,2013-10-05 06:00:00
11:00 PM,51.8,50.0,94,30.38,15.0,WNW,2.3,-,N/A,,Overcast,290,2013-10-05 06:00:00